Location: Tel Aviv
(32.0670°N, 34.7670°E)
Time: 04:57:56
(UTC+02:00)

Explorer 11/Cluster Stage 4 - All Passes

Search period start: 23 January 2022 00:00
Search period end: 02 February 2022 00:00
Orbit: 467 x 1255 km, 28.8° (Epoch: 22 January)

Date Brightness Start Highest point End Pass type
(mag) Time Alt. Az. Time Alt. Az. Time Alt. Az.
23 Jan - 01:50:07 10° S 01:51:01 11° SSE 01:51:55 10° SE night (unlit)
23 Jan - 03:35:22 10° SW 03:38:40 34° SSE 03:42:15 10° E visible
23 Jan - 05:22:48 10° WSW 05:26:36 55° S 05:31:06 10° ESE visible
23 Jan - 07:10:37 10° W 07:14:45 41° SSW 07:19:51 10° ESE daylight
23 Jan - 08:59:17 10° WSW 09:03:04 20° SSW 09:07:26 10° SSE daylight
24 Jan - 01:37:52 10° S 01:39:41 13° SSE 01:41:29 10° SE night (unlit)
24 Jan - 03:24:03 10° WSW 03:27:24 37° SSE 03:30:58 10° E visible
24 Jan - 05:11:39 10° WSW 05:15:20 53° S 05:19:38 10° ESE visible
24 Jan - 06:59:31 10° W 07:03:27 36° SSW 07:08:10 10° SE daylight
24 Jan - 08:48:33 10° WSW 08:51:40 16° SSW 08:55:10 10° SSE daylight
25 Jan - 01:25:59 10° SSW 01:28:23 16° SSE 01:30:42 10° ESE night (unlit)
25 Jan - 03:12:44 10° WSW 03:16:09 40° S 03:19:41 10° E visible
25 Jan - 05:00:29 10° W 05:04:05 51° S 05:08:11 10° ESE visible
25 Jan - 06:48:28 10° WSW 06:52:08 31° SSW 06:56:26 10° SE daylight
25 Jan - 08:38:08 10° SW 08:40:17 13° SSW 08:42:37 10° S daylight
26 Jan - 01:14:13 10° SSW 01:17:05 19° SSE 01:19:47 10° ESE night (unlit)
26 Jan - 03:01:26 10° WSW 03:04:54 43° S 03:08:25 10° E night (unlit)
26 Jan - 04:49:19 10° W 04:52:50 48° S 04:56:45 10° ESE visible
26 Jan - 06:37:27 10° WSW 06:40:49 26° SSW 06:44:42 10° SE daylight
27 Jan - 01:02:31 10° SW 01:05:48 23° SSE 01:08:47 10° ESE night (unlit)
27 Jan - 02:50:06 10° WSW 02:53:40 46° S 02:57:09 10° E night (unlit)
27 Jan - 04:38:07 10° W 04:41:35 44° S 04:45:20 10° ESE visible
27 Jan - 06:26:29 10° WSW 06:29:31 22° SSW 06:32:56 10° SSE daylight
27 Jan - 23:06:13 10° SSE 23:06:31 10° SSE 23:06:50 10° SSE night (unlit)
28 Jan - 00:50:52 10° SW 00:54:31 27° SSE 00:57:45 10° ESE night (unlit)
28 Jan - 02:38:46 10° WSW 02:42:26 49° S 02:45:56 10° E night (unlit)
28 Jan - 04:26:56 10° W 04:30:20 40° S 04:33:56 10° ESE visible
28 Jan - 06:15:35 10° WSW 06:18:13 18° SSW 06:21:06 10° SSE daylight
28 Jan - 22:52:48 10° S 22:55:10 13° SSE 22:57:21 10° SE night (unlit)
29 Jan - 00:39:15 10° SW 00:43:14 32° SSE 00:46:41 10° ESE night (unlit)
29 Jan - 02:27:24 10° WSW 02:31:12 51° S 02:34:42 10° ESE night (unlit)
29 Jan - 04:15:45 10° W 04:19:05 36° S 04:22:32 10° ESE visible
29 Jan - 06:04:49 10° SW 06:06:55 14° SSW 06:09:08 10° SSE visible
29 Jan - 22:40:27 10° SSW 22:43:49 17° SSE 22:46:49 10° ESE night (unlit)
30 Jan - 00:27:37 10° SW 00:31:56 37° SSE 00:35:36 10° E night (unlit)
30 Jan - 02:16:02 10° WSW 02:19:57 52° S 02:23:30 10° ESE night (unlit)
30 Jan - 04:04:31 10° WSW 04:07:50 32° SSW 04:11:08 10° SE visible
30 Jan - 05:54:21 10° SW 05:55:35 11° SSW 05:56:52 10° S visible
30 Jan - 22:28:18 10° SSW 22:32:27 21° SSE 22:36:02 10° ESE night (unlit)
31 Jan - 00:16:00 10° WSW 00:20:38 42° S 00:24:30 10° E night (unlit)
31 Jan - 02:04:37 10° W 02:08:42 52° S 02:12:17 10° ESE night (unlit)
31 Jan - 03:53:18 10° WSW 03:56:34 29° SSW 03:59:43 10° SE visible
31 Jan - 22:16:17 10° SW 22:21:05 25° SSE 22:25:07 10° ESE night (unlit)
01 Feb - 00:04:23 10° WSW 00:09:20 47° S 00:13:23 10° E night (unlit)
01 Feb - 01:53:12 10° W 01:57:26 52° S 02:01:06 10° ESE night (unlit)
01 Feb - 03:42:05 10° WSW 03:45:16 26° SSW 03:48:19 10° SE visible
01 Feb - 20:18:47 10° S 20:21:15 12° SSE 20:23:33 10° SE visible
01 Feb - 22:04:19 10° SW 22:09:41 30° SSE 22:14:07 10° ESE night (unlit)
